Stations météo

Publicité
Orange, France (7579): Température de l'air & dewpoint: 11.12.2017 22:00:00 - 17.12.2017 22:00:00 (CET)Orange, France (7579): Température de l'air 5cm: 11.12.2017 22:00:00 - 17.12.2017 22:00:00 (CET)Orange, France (7579): Vitesse du vent & gusts: 11.12.2017 22:00:00 - 17.12.2017 22:00:00 (CET)Orange, France (7579): Direction du vent: 11.12.2017 22:00:00 - 17.12.2017 22:00:00 (CET)Orange, France (7579): reduced air pressure: 11.12.2017 22:00:00 - 17.12.2017 22:00:00 (CET)Orange, France (7579): visibility: 11.12.2017 22:00:00 - 17.12.2017 22:00:00 (CET)Orange, France (7579): Quantités de précipitations: 11.12.2017 22:00:00 - 17.12.2017 22:00:00 (CET)
Date & Time tt [°C] td [°C] tt 5cm [°C] ff [km/h] ff [knt] fx [km/h] fx [knt] dd ppp [hPa] vv [km] rr [mm]
17.12.2017 22:00:00 2,9 -0,4 1,5 22 12 31 17 NNW 1029,1 10 0,0
17.12.2017 21:00:00 3,3 -0,2 1,5 16 9 39 21 NNW 1028,9 10 0,0
17.12.2017 20:00:00 3,7 -0,1 2,5 22 12 39 21 N 1028,3 10 0,0
17.12.2017 19:00:00 4,0 0,1 2,7 28 15 42 23 NNW 1027,7 10 0,0
17.12.2017 18:00:00 4,4 0,2 3,4 29 16 46 25 NNW 1027,1 10 0,0
17.12.2017 17:00:00 4,8 0,4 4,0 29 16 48 26 N 1026,7 10 0,0
17.12.2017 16:00:00 5,7 0,0 5,6 31 17 51 28 N 1026,0 10 0,0
17.12.2017 15:00:00 6,8 -0,2 9,8 29 16 43 23 N 1025,4 10 0,0
17.12.2017 14:00:00 7,5 0,0 12,2 28 15 43 23 N 1025,4 10 0,0
17.12.2017 13:00:00 7,8 1,0 11,6 28 15 43 23 NNW 1025,7 10 0,0
17.12.2017 12:00:00 6,7 0,6 6,6 22 12 40 22 NNW 1026,4 10 0,0
17.12.2017 11:00:00 5,0 0,6 4,8 26 14 40 22 NNW 1026,8 10 0,0
17.12.2017 10:00:00 4,8 0,2 4,5 26 14 45 25 NNW 1026,2 55 0,0
17.12.2017 09:00:00 4,5 -0,1 1,9 29 16 40 22 NNW 1025,3 10 0,0
17.12.2017 08:00:00 3,3 -0,7 1,6 24 13 47 26 NNW 1024,8 10 0,0
17.12.2017 07:00:00 3,5 -0,7 2,0 34 18 49 26 NNW 1024,0 10 0,0
17.12.2017 06:00:00 3,9 -0,5 2,4 29 16 52 28 NNW 1023,7 10 0,0
17.12.2017 05:00:00 3,9 -0,5 2,9 34 18 61 33 N 1023,1 10 0,0
17.12.2017 04:00:00 4,0 0,1 2,2 43 23 61 33 NNW 1022,6 60 0,0
17.12.2017 03:00:00 3,6 0,3 1,9 22 12 53 29 NNW 1022,7 56 0,0
17.12.2017 02:00:00 4,0 0,7 2,1 39 21 52 28 NNW 1021,8 10 0,0
17.12.2017 01:00:00 4,0 0,9 2,7 27 15 48 26 NNW 1021,8 51 0,0
17.12.2017 00:00:00 3,8 1,0 2,4 29 16 49 27 NNW 1021,6 10 0,0
16.12.2017 23:00:00 3,6 1,1 2,5 29 16 46 25 N 1021,1 10 0,0
16.12.2017 22:00:00 3,7 1,2 2,7 34 18 51 28 N 1020,8 10 0,0
16.12.2017 21:00:00 3,9 1,3 2,9 32 17 52 28 N 1020,3 47 0,0
16.12.2017 20:00:00 4,5 1,0 3,5 34 18 53 29 NNW 1019,1 10 0,0
16.12.2017 19:00:00 4,8 1,1 3,6 26 14 50 27 NNW 1018,7 50 0,0
16.12.2017 18:00:00 5,5 1,0 4,2 31 17 48 26 NNW 1017,5 45 0,0
16.12.2017 17:00:00 6,0 0,7 5,0 29 16 61 33 NNW 1016,8 59 0,0
16.12.2017 16:00:00 7,5 0,2 7,4 29 16 58 32 N 1016,3 10 0,0
16.12.2017 15:00:00 8,1 0,8 10,5 35 19 68 37 N 1015,2 31 0,0
16.12.2017 14:00:00 8,4 1,1 9,9 35 19 67 36 N 1014,4 10 0,0
16.12.2017 13:00:00 8,0 0,9 10,4 37 20 64 34 N 1014,2 10 0,0
16.12.2017 12:00:00 7,5 2,2 7,7 29 16 51 27 N 1014,2 10 0,0
16.12.2017 11:00:00 6,3 2,9 4,2 28 15 47 25 N 1014,3 60 0,0
16.12.2017 10:00:00 5,1 2,4 2,3 9 5 19 11 NNW 1013,5 27 0,0
16.12.2017 09:00:00 3,4 1,4 0,2 15 8 24 13 NW 1012,3 41 0,0
16.12.2017 08:00:00 2,6 1,3 -0,5 9 5 24 13 NNE 1011,2 45 0,2
16.12.2017 07:00:00 1,4 1,0 -1,7 9 5 16 8 WNW 1010,3 10 0,0
16.12.2017 06:00:00 -0,1 -0,5 -2,1 8 4 20 11 NW 1009,8 10 0,0
16.12.2017 05:00:00 0,8 0,5 -2,3 8 4 11 6 WNW 1009,0 10 0,0
16.12.2017 04:00:00 0,8 0,4 -0,3 4 2 11 6 - 1008,8 10 0,0
16.12.2017 03:00:00 0,7 0,3 -1,3 8 4 20 11 N 1008,3 10 0,0
16.12.2017 02:00:00 1,6 1,2 -1,3 2 1 14 8 - 1007,3 10 0,0
16.12.2017 01:00:00 2,0 1,4 -1,2 11 6 16 8 WNW 1007,1 10 0,0
16.12.2017 00:00:00 2,7 1,8 -1,1 5 3 15 8 WNW 1006,8 10 0,0
15.12.2017 23:00:00 2,2 1,2 -0,8 4 2 13 7 - 1006,2 10 0,0
15.12.2017 22:00:00 4,1 2,4 2,2 9 5 29 16 N 1005,6 57 0,2
15.12.2017 21:00:00 7,1 3,0 5,1 13 7 32 17 NW 1005,0 8 0,2
15.12.2017 20:00:00 7,1 1,4 4,9 8 4 11 6 S 1003,8 10 0,0
15.12.2017 19:00:00 7,8 1,2 4,1 4 2 10 6 SSW 1003,9 45 0,0
15.12.2017 18:00:00 6,7 2,2 3,9 4 2 6 4 SW 1004,0 10 0,0
15.12.2017 17:00:00 8,7 1,8 6,9 2 1 13 7 - 1003,8 10 0,0
15.12.2017 16:00:00 10,2 1,3 8,7 8 4 26 14 NNE 1003,4 44 0,0
15.12.2017 15:00:00 11,6 1,2 15,5 16 9 31 17 NNW 1003,2 45 0,0
15.12.2017 14:00:00 11,2 1,4 11,7 16 9 26 14 NNW 1003,4 10 0,0
15.12.2017 13:00:00 9,0 4,8 10,0 11 6 23 12 NW 1004,2 10 0,0
15.12.2017 12:00:00 9,8 6,0 8,7 15 8 24 13 NNW 1004,9 10 0,0
15.12.2017 11:00:00 7,8 6,7 7,1 9 5 16 9 N 1005,6 10 0,0
15.12.2017 10:00:00 6,9 5,7 5,7 8 5 20 11 NNW 1005,8 59 0,0
15.12.2017 09:00:00 6,3 5,6 5,0 5 3 16 8 - 1004,6 10 0,0
15.12.2017 08:00:00 6,8 5,7 5,6 4 2 23 12 - 1004,7 10 0,2
15.12.2017 07:00:00 7,7 6,6 6,3 15 8 21 11 NNW 1005,3 10 0,0
15.12.2017 06:00:00 7,8 6,1 6,2 7 4 13 7 NNW 1004,4 19 0,0
15.12.2017 05:00:00 8,0 5,8 6,7 9 5 23 13 SE 1004,1 10 0,0
15.12.2017 04:00:00 9,5 6,8 7,5 15 8 27 15 S 1004,5 10 0,0
15.12.2017 03:00:00 8,8 6,6 6,8 15 8 23 13 SE 1005,5 10 0,0
15.12.2017 02:00:00 9,7 7,0 7,7 15 8 34 18 SSE 1005,9 10 0,0
15.12.2017 01:00:00 10,4 6,7 7,2 24 13 37 20 ESE 1006,2 10 0,0
15.12.2017 00:00:00 10,4 6,2 8,1 13 7 23 13 SE 1007,0 10 0,0
14.12.2017 23:00:00 11,2 6,5 8,5 16 9 34 19 SE 1007,3 10 0,0
14.12.2017 22:00:00 10,6 6,9 8,7 16 8 23 12 SSE 1007,8 38 0,0
14.12.2017 21:00:00 10,9 7,0 9,0 13 7 21 11 SSE 1008,6 10 0,0
14.12.2017 20:00:00 10,6 6,5 8,0 13 7 22 12 SSE 1009,0 10 0,0
14.12.2017 19:00:00 11,4 6,1 9,3 10 5 22 12 SSW 1009,1 44 0,0
14.12.2017 18:00:00 12,1 5,7 9,6 11 6 19 10 SSW 1009,4 10 0,0
14.12.2017 17:00:00 12,1 7,4 10,7 13 7 24 13 SSE 1009,7 20 0,0
14.12.2017 16:00:00 12,6 7,5 12,3 16 9 28 15 SE 1009,9 10 0,2
14.12.2017 15:00:00 13,3 7,5 13,2 16 8 23 12 SSE 1010,5 20 0,0
14.12.2017 14:00:00 12,6 7,7 14,1 9 5 19 10 S 1011,0 10 0,0
14.12.2017 13:00:00 11,6 8,1 12,5 13 7 18 10 SSE 1012,1 16 0,0
14.12.2017 12:00:00 9,6 7,4 6,5 6 3 11 6 SSE 1012,9 11 0,0
14.12.2017 11:00:00 7,1 5,9 6,9 5 3 9 5 SSE 1014,2 10 0,0
14.12.2017 10:00:00 7,0 6,1 6,2 3 2 6 3 SSE 1014,5 29 0,0
14.12.2017 09:00:00 6,7 5,8 5,6 4 2 8 5 - 1014,2 10 0,0
14.12.2017 08:00:00 7,0 5,9 6,1 0 0 8 5 N 1013,8 10 0,0
14.12.2017 07:00:00 7,3 6,2 6,3 5 3 14 8 SSE 1013,0 10 0,0
14.12.2017 06:00:00 7,5 6,4 6,7 4 2 11 6 - 1013,4 10 0,0
14.12.2017 05:00:00 8,1 6,9 7,4 5 3 15 8 S 1013,6 10 0,0
14.12.2017 04:00:00 8,6 7,1 7,3 9 5 21 11 SE 1013,9 10 0,0
14.12.2017 03:00:00 8,7 7,1 7,1 16 9 32 18 ESE 1014,4 10 0,0
14.12.2017 02:00:00 7,9 7,0 6,5 21 11 29 16 ESE 1014,5 10 0,0
14.12.2017 01:00:00 7,6 6,2 5,6 13 7 23 13 SE 1015,1 6 0,2
14.12.2017 00:00:00 7,2 4,5 5,8 11 6 21 12 S 1015,9 10 0,0
13.12.2017 23:00:00 7,7 3,5 5,8 16 8 26 14 SE 1015,9 60 0,0
13.12.2017 22:00:00 6,8 3,0 5,6 13 7 19 10 SE 1016,5 10 0,0
13.12.2017 21:00:00 6,5 2,6 5,8 9 5 17 9 S 1017,2 10 0,0
13.12.2017 20:00:00 6,7 2,4 5,5 11 6 17 9 ESE 1017,5 10 0,0
13.12.2017 19:00:00 6,5 2,4 5,4 8 4 16 8 SE 1018,2 16 0,0
13.12.2017 18:00:00 6,7 2,2 5,0 9 5 19 10 SE 1018,5 10 0,0
13.12.2017 17:00:00 6,8 1,9 5,6 9 5 14 8 SE 1018,9 10 0,0
13.12.2017 16:00:00 7,4 1,5 7,0 9 5 15 8 ESE 1019,3 10 0,0
13.12.2017 15:00:00 7,3 1,1 7,8 9 5 16 8 ESE 1019,2 10 0,0
13.12.2017 14:00:00 7,3 0,7 9,6 10 5 16 9 SE 1020,1 19 0,0
13.12.2017 13:00:00 6,2 1,1 10,4 7 4 13 7 SSE 1020,8 19 0,0
13.12.2017 12:00:00 4,9 0,7 5,9 5 3 13 7 S 1021,6 19 0,0
13.12.2017 11:00:00 3,9 0,4 3,0 0 0 6 3 N 1022,4 10 0,2
13.12.2017 10:00:00 1,1 -0,1 -1,3 4 2 9 5 ENE 1022,5 16 0,0
13.12.2017 09:00:00 -1,0 -1,4 -4,6 8 4 10 6 ENE 1022,6 7 0,0
13.12.2017 08:00:00 -2,3 -3,0 -4,5 0 0 5 3 N 1022,2 6 0,0
13.12.2017 07:00:00 -1,3 -2,1 -4,4 4 2 11 6 - 1022,0 9 0,0
13.12.2017 06:00:00 -1,3 -2,3 -4,1 4 2 13 7 NNW 1021,6 10 0,0
13.12.2017 05:00:00 -0,2 -1,6 -1,9 11 6 23 12 NNW 1021,5 10 0,0
13.12.2017 04:00:00 0,5 -1,3 -2,3 8 4 14 8 NNW 1021,6 10 0,0
13.12.2017 03:00:00 0,5 -1,3 -1,5 10 5 27 14 NNE 1021,7 21 0,0
13.12.2017 02:00:00 2,7 0,3 0,2 16 9 26 14 NNW 1021,4 10 0,0
13.12.2017 01:00:00 2,1 0,3 0,1 15 8 24 13 N 1021,0 10 0,0
13.12.2017 00:00:00 1,9 0,0 0,1 13 7 21 11 N 1020,7 10 0,0
12.12.2017 23:00:00 2,9 0,6 0,7 13 7 23 13 NW 1020,4 29 0,0
12.12.2017 22:00:00 2,6 0,5 -0,2 15 8 21 11 NNW 1019,6 29 0,0
12.12.2017 21:00:00 2,2 0,9 0,5 13 7 25 14 NNW 1019,5 10 0,0
12.12.2017 20:00:00 4,5 1,9 1,3 22 12 34 18 NNW 1018,6 10 0,0
12.12.2017 19:00:00 3,7 0,9 1,1 10 5 29 16 NNW 1017,7 59 0,0
12.12.2017 18:00:00 5,2 1,5 3,7 21 11 35 19 NNW 1016,8 10 0,0
12.12.2017 17:00:00 6,0 2,1 5,0 20 11 36 19 NNW 1016,3 60 0,0
12.12.2017 16:00:00 6,6 2,7 6,7 24 13 44 24 N 1015,5 10 0,0
12.12.2017 15:00:00 7,0 3,2 7,4 23 13 41 22 NNW 1014,9 58 0,0
12.12.2017 14:00:00 7,3 4,1 8,1 16 9 28 15 N 1013,8 10 0,0
12.12.2017 13:00:00 7,2 4,5 7,6 21 11 31 17 N 1014,0 48 0,0
12.12.2017 12:00:00 6,1 5,4 5,2 5 3 8 5 - 1013,8 10 0,0
12.12.2017 11:00:00 4,1 3,5 4,4 5 3 9 5 NW 1013,5 7 0,0
12.12.2017 10:00:00 3,3 2,9 1,9 0 0 13 7 N 1012,6 11 0,0
12.12.2017 09:00:00 2,1 1,7 -0,5 4 2 11 6 - 1011,4 10 0,0
12.12.2017 08:00:00 1,5 1,1 -1,4 4 2 8 5 - 1010,2 10 0,0
12.12.2017 07:00:00 1,6 0,9 -0,9 4 2 13 7 - 1009,0 10 0,0
12.12.2017 06:00:00 3,7 3,1 -0,3 6 3 17 9 SSW 1007,6 29 0,0
12.12.2017 05:00:00 3,5 2,8 -0,1 5 3 14 8 SSE 1006,7 18 0,0
12.12.2017 04:00:00 3,5 2,5 1,5 9 5 16 9 SE 1005,8 10 0,2
12.12.2017 03:00:00 4,4 3,7 0,5 10 6 13 7 SE 1005,1 25 0,0
12.12.2017 02:00:00 4,9 4,0 3,0 11 6 19 10 SE 1003,6 10 0,0
12.12.2017 01:00:00 6,0 5,0 4,0 13 7 20 11 SSE 1002,5 21 0,0
12.12.2017 00:00:00 6,1 5,5 3,4 12 7 17 9 SE 1001,4 28 0,0
11.12.2017 23:00:00 5,8 5,2 4,5 16 9 21 11 SE 1000,0 10 0,0
11.12.2017 22:00:00 6,2 5,8 4,4 15 8 18 10 SE 998,7 9 0,0

tt = Température de l'air
td = dewpoint
tt 5cm = Température de l'air 5cm
ff = Vitesse du vent
fx = gusts
dd = Direction du vent
ppp = reduced air pressure
vv = visibility
rr = Quantités de précipitations

stations d'obs. à proximité